Weather History for Seminole, TX

Change the Weather History Date:

Thursday, November 29, 2012

  Actual Average (KHOB) Record (KHOB)
Temperature  
Mean Temperature 56 °F -  
Max Temperature 75 °F 58 °F 74 °F (1949)
Min Temperature 37 °F 33 °F 19 °F (1955)
Degree Days  
Heating Degree Days 9    
Growing Degree Days 6 (Base 50)    
Moisture  
Dew Point 34 °F    
Average Humidity 52    
Maximum Humidity 89    
Minimum Humidity 19    
Precipitation  
Precipitation 0.00 in - - ()
Sea Level Pressure  
Sea Level Pressure 30.12 in    
Wind  
Wind Speed 7 mph (WSW)    
Max Wind Speed 15 mph    
Max Gust Speed 21 mph    
Visibility 10 miles    
Events      
Averages and records for this station are not official NWS values.
T = Trace of Precipitation, MM = Missing Value Source: NWS Daily Summary

Daily Weather History Graph

Daily Weather History Graph

Search for Another Location

Airport:

Trip Planner

Search our weather history database for the weather conditions in past years. The results will help you decide how hot, cold, wet, or windy it might be!

Date:

Astronomy

Nov. 29, 2012 Rise Set
Actual Time 7:33 AM CST 5:44 PM CST
Civil Twilight 7:06 AM CST 6:11 PM CST
Nautical Twilight 6:36 AM CST 6:41 PM CST
Astronomical Twilight 6:06 AM CST 7:11 PM CST
Moon 6:49 PM CST (11/29) 8:21 AM CST (11/29)
Length of Visible Light 11h 04m
Length of Day
10h 11m
Full, 99% of the Moon is Illuminated
Nov 29
Full
Dec 6
Last Quarter
Dec 13
New
Dec 19
First Quarter
Dec 28
Full

Hourly Weather History & Observations

Time (CST) Temp. Windchill Dew Point Humidity Pressure Visibility Wind Dir Wind Speed Gust Speed Precip Events Conditions
12:15 AM 45.5 °F 41.3 °F 37.0 °F 72% 30.19 in 10.0 mi SSW 8.1 mph - N/A   Clear
12:35 AM 45.5 °F 41.8 °F 37.4 °F 73% 30.18 in 10.0 mi SSW 6.9 mph - N/A   Clear
12:55 AM 44.8 °F 41.0 °F 37.4 °F 75% 30.18 in 10.0 mi SSW 6.9 mph - N/A   Clear
1:15 AM 44.6 °F 41.4 °F 37.4 °F 76% 30.18 in 10.0 mi SW 5.8 mph - N/A   Clear
1:35 AM 44.1 °F 40.8 °F 37.2 °F 77% 30.19 in 10.0 mi SW 5.8 mph - N/A   Clear
1:55 AM 43.7 °F 40.3 °F 37.2 °F 78% 30.18 in 10.0 mi SW 5.8 mph - N/A   Clear
2:15 AM 43.2 °F 40.5 °F 37.0 °F 79% 30.18 in 10.0 mi SW 4.6 mph - N/A   Clear
2:35 AM 43.0 °F 41.3 °F 36.9 °F 79% 30.18 in 10.0 mi WSW 3.5 mph - N/A   Clear
2:55 AM 42.3 °F - 36.5 °F 80% 30.18 in 10.0 mi Calm Calm - N/A   Clear
3:15 AM 41.9 °F 40.0 °F 36.5 °F 81% 30.17 in 10.0 mi West 3.5 mph - N/A   Clear
3:35 AM 40.8 °F - 35.6 °F 82% 30.17 in 10.0 mi Calm Calm - N/A   Clear
3:55 AM 37.9 °F 34.4 °F 33.4 °F 84% 30.18 in 10.0 mi WNW 4.6 mph - N/A   Clear
4:15 AM 38.3 °F 33.9 °F 34.0 °F 84% 30.17 in 10.0 mi West 5.8 mph - N/A   Clear
4:35 AM 40.5 °F - 35.8 °F 83% 30.16 in 10.0 mi Calm Calm - N/A   Clear
4:55 AM 40.3 °F - 35.8 °F 84% 30.15 in 10.0 mi Calm Calm - N/A   Clear
5:15 AM 40.1 °F - 35.6 °F 84% 30.16 in 10.0 mi Calm Calm - N/A   Clear
5:35 AM 39.9 °F - 35.8 °F 85% 30.14 in 10.0 mi Calm Calm - N/A   Clear
5:55 AM 39.9 °F - 36.0 °F 86% 30.14 in 10.0 mi Calm Calm - N/A   Clear
6:15 AM 40.1 °F 38.0 °F 36.1 °F 86% 30.15 in 10.0 mi WSW 3.5 mph - N/A   Clear
6:35 AM 39.4 °F 35.2 °F 35.8 °F 87% 30.14 in 10.0 mi WSW 5.8 mph - N/A   Clear
6:55 AM 39.2 °F 34.2 °F 36.0 °F 88% 30.14 in 10.0 mi SW 6.9 mph - N/A   Clear
7:15 AM 39.6 °F 36.3 °F 36.1 °F 88% 30.14 in 10.0 mi SW 4.6 mph - N/A   Clear
7:35 AM 38.8 °F 35.4 °F 35.8 °F 89% 30.15 in 10.0 mi SW 4.6 mph - N/A   Clear
7:55 AM 39.2 °F 37.0 °F 36.1 °F 89% 30.15 in 10.0 mi WSW 3.5 mph - N/A   Clear
8:15 AM 40.5 °F 35.8 °F 37.2 °F 88% 30.15 in 10.0 mi WSW 6.9 mph - N/A   Clear
8:35 AM 43.0 °F 37.7 °F 38.3 °F 84% 30.15 in 10.0 mi WSW 9.2 mph - N/A   Clear
8:55 AM 46.0 °F 42.5 °F 39.4 °F 78% 30.16 in 10.0 mi WSW 6.9 mph - N/A   Clear
9:15 AM 48.7 °F - 40.3 °F 73% 30.16 in 10.0 mi WSW 8.1 mph - N/A   Clear
9:35 AM 50.9 °F - 40.6 °F 68% 30.17 in 10.0 mi WSW 8.1 mph - N/A   Clear
10:15 AM 55.9 °F - 40.5 °F 56% 30.17 in 10.0 mi WSW 11.5 mph - N/A   Clear
10:35 AM 59.0 °F - 40.5 °F 50% 30.17 in 10.0 mi WSW 10.4 mph - N/A   Clear
10:55 AM 61.2 °F - 39.4 °F 45% 30.16 in 10.0 mi WSW 10.4 mph - N/A   Clear
11:15 AM 63.0 °F - 38.8 °F 41% 30.16 in 10.0 mi West 10.4 mph - N/A   Clear
11:35 AM 64.9 °F - 38.7 °F 38% 30.16 in 10.0 mi West 10.4 mph - N/A   Clear
11:55 AM 67.6 °F - 37.6 °F 33% 30.15 in 10.0 mi West 11.5 mph - N/A   Clear
12:15 PM 69.3 °F - 37.0 °F 31% 30.14 in 10.0 mi West 11.5 mph - N/A   Clear
12:35 PM 70.2 °F - 36.9 °F 30% 30.13 in 10.0 mi West 9.2 mph - N/A   Clear
12:55 PM 71.6 °F - 36.3 °F 28% 30.11 in 10.0 mi WNW 8.1 mph - N/A   Clear
1:15 PM 73.6 °F - 35.4 °F 25% 30.10 in 10.0 mi West 8.1 mph 17.3 mph N/A   Clear
1:35 PM 74.5 °F - 33.8 °F 23% 30.09 in 10.0 mi West 12.7 mph - N/A   Clear
1:55 PM 75.4 °F - 33.1 °F 21% 30.09 in 10.0 mi West 11.5 mph 18.4 mph N/A   Clear
2:15 PM 75.6 °F - 32.5 °F 21% 30.07 in 10.0 mi WSW 15.0 mph 20.7 mph N/A   Clear
2:35 PM 75.7 °F - 32.0 °F 20% 30.06 in 10.0 mi West 12.7 mph 18.4 mph N/A   Clear
2:55 PM 75.9 °F - 30.9 °F 19% 30.06 in 10.0 mi WSW 12.7 mph - N/A   Clear
3:15 PM 75.9 °F - 30.7 °F 19% 30.06 in 10.0 mi WSW 15.0 mph 19.6 mph N/A   Clear
3:35 PM 75.7 °F - 30.4 °F 19% 30.06 in 10.0 mi WSW 12.7 mph 17.3 mph N/A   Clear
3:55 PM 75.4 °F - 29.7 °F 19% 30.06 in 10.0 mi West 11.5 mph 18.4 mph N/A   Clear
4:15 PM 75.0 °F - 29.7 °F 19% 30.06 in 10.0 mi WSW 11.5 mph 17.3 mph N/A   Clear
4:35 PM 74.5 °F - 29.8 °F 19% 30.06 in 10.0 mi WSW 13.8 mph - N/A   Clear
4:55 PM 73.9 °F - 29.5 °F 19% 30.06 in 10.0 mi West 9.2 mph - N/A   Clear
5:15 PM 72.9 °F - 29.3 °F 20% 30.06 in 10.0 mi West 8.1 mph - N/A   Clear
5:35 PM 70.7 °F - 29.3 °F 21% 30.06 in 10.0 mi WSW 5.8 mph - N/A   Clear
5:55 PM 67.6 °F - 29.8 °F 24% 30.06 in 10.0 mi WSW 6.9 mph - N/A   Clear
6:15 PM 65.1 °F - 30.2 °F 27% 30.07 in 10.0 mi WSW 5.8 mph - N/A   Clear
6:35 PM 62.1 °F - 29.7 °F 29% 30.07 in 10.0 mi WSW 5.8 mph - N/A   Clear
6:55 PM 60.6 °F - 29.1 °F 30% 30.07 in 10.0 mi SW 5.8 mph - N/A   Clear
7:15 PM 59.4 °F - 28.8 °F 31% 30.08 in 10.0 mi WSW 5.8 mph - N/A   Clear
7:35 PM 57.7 °F - 28.4 °F 33% 30.09 in 10.0 mi WSW 8.1 mph - N/A   Clear
7:55 PM 56.7 °F - 28.4 °F 34% 30.09 in 10.0 mi WSW 6.9 mph - N/A   Clear
8:15 PM 55.6 °F - 28.4 °F 35% 30.09 in 10.0 mi West 6.9 mph - N/A   Clear
8:35 PM 54.7 °F - 28.4 °F 36% 30.09 in 10.0 mi West 6.9 mph - N/A   Clear
8:55 PM 55.2 °F - 28.6 °F 36% 30.10 in 10.0 mi West 10.4 mph - N/A   Clear
9:15 PM 55.9 °F - 29.3 °F 36% 30.10 in 10.0 mi WSW 6.9 mph - N/A   Clear
9:35 PM 53.6 °F - 29.3 °F 39% 30.10 in 10.0 mi West 10.4 mph - N/A   Clear
9:55 PM 53.1 °F - 29.5 °F 40% 30.10 in 10.0 mi West 6.9 mph - N/A   Clear
10:15 PM 52.2 °F - 29.8 °F 42% 30.10 in 10.0 mi West 8.1 mph - N/A   Clear
10:35 PM 51.3 °F - 30.0 °F 44% 30.11 in 10.0 mi SW 9.2 mph 16.1 mph N/A   Clear
10:55 PM 49.6 °F - 29.8 °F 47% 30.11 in 10.0 mi Calm Calm - N/A   Clear
11:15 PM 48.9 °F - 30.4 °F 49% 30.11 in 10.0 mi WSW 8.1 mph - N/A   Clear
11:35 PM 49.6 °F - 32.2 °F 51% 30.11 in 10.0 mi WSW 9.2 mph - N/A   Clear
11:55 PM 48.7 °F - 32.7 °F 54% 30.11 in 10.0 mi WSW 8.1 mph - N/A   Clear